Time,TemperatureF,DewpointF,PressureIn,WindDirection,WindDirectionDegrees,WindSpeedMPH,WindSpeedGustMPH,Humidity,HourlyPrecipIn,Conditions,Clouds,dailyrainin,SoftwareType,DateUTC
2013-06-25 00:11:00,88.8,41.0,29.95,SW,225,6.0,15.0,19,0.00,,,0.00,weatherlink.com 1.10,2013-06-25 06:11:00,
2013-06-25 00:27:00,88.4,42.0,29.95,West,269,3.0,10.0,20,0.00,,,0.00,weatherlink.com 1.10,2013-06-25 06:27:00,
2013-06-25 00:42:00,88.4,39.0,29.94,West,263,8.0,13.0,18,0.00,,,0.00,weatherlink.com 1.10,2013-06-25 06:42:00,
2013-06-25 00:57:00,88.6,40.0,29.95,WNW,284,10.0,17.0,18,0.00,,,0.00,weatherlink.com 1.10,2013-06-25 06:57:00,
2013-06-25 01:12:00,88.5,38.0,29.95,West,267,3.0,19.0,17,0.00,,,0.00,weatherlink.com 1.10,2013-06-25 07:12:00,
2013-06-25 01:27:00,88.0,33.0,29.95,West,278,6.0,24.0,14,0.00,,,0.00,weatherlink.com 1.10,2013-06-25 07:27:00,
2013-06-25 01:42:00,87.8,29.0,29.96,West,267,4.0,17.0,12,0.00,,,0.00,weatherlink.com 1.10,2013-06-25 07:42:00,
2013-06-25 01:58:00,87.7,29.0,29.95,WNW,299,10.0,20.0,12,0.00,,,0.00,weatherlink.com 1.10,2013-06-25 07:58:00,
2013-06-25 02:13:00,87.4,29.0,29.95,NW,309,10.0,21.0,12,0.00,,,0.00,weatherlink.com 1.10,2013-06-25 08:13:00,
2013-06-25 02:28:00,87.3,26.0,29.95,WNW,294,13.0,20.0,11,0.00,,,0.00,weatherlink.com 1.10,2013-06-25 08:28:00,
2013-06-25 02:43:00,87.0,26.0,29.95,West,269,10.0,17.0,11,0.00,,,0.00,weatherlink.com 1.10,2013-06-25 08:43:00,
2013-06-25 02:58:00,87.1,24.0,29.95,NW,304,9.0,20.0,10,0.00,,,0.00,weatherlink.com 1.10,2013-06-25 08:58:00,
2013-06-25 03:14:00,86.7,21.0,29.95,WNW,297,11.0,21.0,9,0.00,,,0.00,weatherlink.com 1.10,2013-06-25 09:14:00,
2013-06-25 03:29:00,86.2,23.0,29.96,NW,307,13.0,15.0,10,0.00,,,0.00,weatherlink.com 1.10,2013-06-25 09:29:00,
2013-06-25 03:44:00,85.1,25.0,29.98,SW,224,1.0,10.0,11,0.00,,,0.00,weatherlink.com 1.10,2013-06-25 09:44:00,
2013-06-25 03:59:00,84.1,24.0,29.99,SE,144,11.0,11.0,11,0.00,,,0.00,weatherlink.com 1.10,2013-06-25 09:59:00,
2013-06-25 04:14:00,84.1,24.0,29.99,NNE,31,6.0,8.0,11,0.00,,,0.00,weatherlink.com 1.10,2013-06-25 10:14:00,
2013-06-25 04:30:00,83.4,21.0,29.99,NW,309,0.0,7.0,10,0.00,,,0.00,weatherlink.com 1.10,2013-06-25 10:30:00,
2013-06-25 04:45:00,82.9,21.0,30.00,WNW,287,1.0,12.0,10,0.00,,,0.00,weatherlink.com 1.10,2013-06-25 10:45:00,
2013-06-25 05:00:00,82.7,21.0,30.00,West,281,4.0,9.0,10,0.00,,,0.00,weatherlink.com 1.10,2013-06-25 11:00:00,
2013-06-25 05:15:00,82.8,21.0,30.00,West,262,5.0,9.0,10,0.00,,,0.00,weatherlink.com 1.10,2013-06-25 11:15:00,
2013-06-25 05:31:00,82.3,18.0,30.00,WNW,288,0.0,7.0,9,0.00,,,0.00,weatherlink.com 1.10,2013-06-25 11:31:00,
2013-06-25 05:46:00,82.4,18.0,30.00,WNW,285,9.0,10.0,9,0.00,,,0.00,weatherlink.com 1.10,2013-06-25 11:46:00,
2013-06-25 06:01:00,83.1,18.0,30.01,WSW,249,1.0,14.0,9,0.00,,,0.00,weatherlink.com 1.10,2013-06-25 12:01:00,
2013-06-25 06:16:00,82.3,18.0,30.01,SSE,155,3.0,7.0,9,0.00,,,0.00,weatherlink.com 1.10,2013-06-25 12:16:00,
2013-06-25 06:31:00,82.4,20.0,30.02,East,82,6.0,8.0,10,0.00,,,0.00,weatherlink.com 1.10,2013-06-25 12:31:00,
2013-06-25 06:46:00,82.0,20.0,30.02,ENE,77,0.0,9.0,10,0.00,,,0.00,weatherlink.com 1.10,2013-06-25 12:46:00,
2013-06-25 07:02:00,82.9,21.0,30.02,WNW,287,5.0,8.0,10,0.00,,,0.00,weatherlink.com 1.10,2013-06-25 13:02:00,
2013-06-25 07:17:00,84.3,22.0,30.03,NNE,28,2.0,11.0,10,0.00,,,0.00,weatherlink.com 1.10,2013-06-25 13:17:00,
2013-06-25 07:32:00,85.1,25.0,30.04,West,275,5.0,9.0,11,0.00,,,0.00,weatherlink.com 1.10,2013-06-25 13:32:00,
2013-06-25 07:47:00,85.4,25.0,30.04,WNW,288,9.0,13.0,11,0.00,,,0.00,weatherlink.com 1.10,2013-06-25 13:47:00,
2013-06-25 08:02:00,85.9,27.0,30.04,WNW,288,10.0,13.0,12,0.00,,,0.00,weatherlink.com 1.10,2013-06-25 14:02:00,
2013-06-25 08:17:00,86.3,28.0,30.05,NW,325,10.0,13.0,12,0.00,,,0.00,weatherlink.com 1.10,2013-06-25 14:17:00,
2013-06-25 08:33:00,86.4,26.0,30.05,West,277,6.0,16.0,11,0.00,,,0.00,weatherlink.com 1.10,2013-06-25 14:33:00,
2013-06-25 08:48:00,87.0,26.0,30.05,NW,314,10.0,14.0,11,0.00,,,0.00,weatherlink.com 1.10,2013-06-25 14:48:00,
2013-06-25 09:03:00,87.7,27.0,30.05,NW,306,10.0,19.0,11,0.00,,,0.00,weatherlink.com 1.10,2013-06-25 15:03:00,
2013-06-25 09:18:00,88.2,27.0,30.06,SW,231,6.0,16.0,11,0.00,,,0.00,weatherlink.com 1.10,2013-06-25 15:18:00,
2013-06-25 09:33:00,88.5,29.0,30.06,West,265,5.0,19.0,12,0.00,,,0.00,weatherlink.com 1.10,2013-06-25 15:33:00,
2013-06-25 09:49:00,88.8,30.0,30.05,WNW,294,7.0,11.0,12,0.00,,,0.00,weatherlink.com 1.10,2013-06-25 15:49:00,
2013-06-25 10:04:00,89.5,28.0,30.06,NW,307,6.0,16.0,11,0.00,,,0.00,weatherlink.com 1.10,2013-06-25 16:04:00,
2013-06-25 10:19:00,90.8,27.0,30.06,WNW,290,7.0,13.0,10,0.00,,,0.00,weatherlink.com 1.10,2013-06-25 16:19:00,
2013-06-25 10:34:00,90.8,29.0,30.06,West,263,7.0,13.0,11,0.00,,,0.00,weatherlink.com 1.10,2013-06-25 16:34:00,
2013-06-25 10:49:00,91.2,29.0,30.06,West,268,0.0,11.0,11,0.00,,,0.00,weatherlink.com 1.10,2013-06-25 16:49:00,
2013-06-25 11:05:00,93.0,26.0,30.05,West,262,3.0,13.0,9,0.00,,,0.00,weatherlink.com 1.10,2013-06-25 17:05:00,
2013-06-25 11:20:00,93.1,28.0,30.05,West,274,8.0,13.0,10,0.00,,,0.00,weatherlink.com 1.10,2013-06-25 17:20:00,
2013-06-25 11:35:00,93.7,26.0,30.05,NW,321,7.0,15.0,9,0.00,,,0.00,weatherlink.com 1.10,2013-06-25 17:35:00,
2013-06-25 11:50:00,95.0,27.0,30.05,NW,306,10.0,17.0,9,0.00,,,0.00,weatherlink.com 1.10,2013-06-25 17:50:00,
2013-06-25 12:06:00,94.1,27.0,30.04,West,281,8.0,17.0,9,0.00,,,0.00,weatherlink.com 1.10,2013-06-25 18:06:00,
2013-06-25 12:21:00,95.3,28.0,30.04,WNW,296,4.0,16.0,9,0.00,,,0.00,weatherlink.com 1.10,2013-06-25 18:21:00,
2013-06-25 12:36:00,96.1,28.0,30.04,WNW,292,8.0,17.0,9,0.00,,,0.00,weatherlink.com 1.10,2013-06-25 18:36:00,
2013-06-25 12:51:00,96.4,28.0,30.04,West,268,10.0,15.0,9,0.00,,,0.00,weatherlink.com 1.10,2013-06-25 18:51:00,
2013-06-25 13:06:00,97.3,29.0,30.03,WNW,292,5.0,14.0,9,0.00,,,0.00,weatherlink.com 1.10,2013-06-25 19:06:00,
2013-06-25 13:22:00,98.1,30.0,30.03,NW,310,6.0,13.0,9,0.00,,,0.00,weatherlink.com 1.10,2013-06-25 19:22:00,
2013-06-25 13:38:00,99.3,28.0,30.02,WNW,288,11.0,13.0,8,0.00,,,0.00,weatherlink.com 1.10,2013-06-25 19:38:00,
2013-06-25 13:53:00,98.3,30.0,30.02,NW,309,6.0,17.0,9,0.00,,,0.00,weatherlink.com 1.10,2013-06-25 19:53:00,
2013-06-25 14:08:00,98.7,27.0,30.02,West,268,5.0,15.0,8,0.00,,,0.00,weatherlink.com 1.10,2013-06-25 20:08:00,
2013-06-25 14:23:00,100.2,28.0,30.01,SE,134,3.0,17.0,8,0.00,,,0.00,weatherlink.com 1.10,2013-06-25 20:23:00,
2013-06-25 14:38:00,101.2,29.0,30.01,West,280,7.0,9.0,8,0.00,,,0.00,weatherlink.com 1.10,2013-06-25 20:38:00,
2013-06-25 14:53:00,101.7,29.0,30.00,South,179,8.0,15.0,8,0.00,,,0.00,weatherlink.com 1.10,2013-06-25 20:53:00,
2013-06-25 15:09:00,102.5,33.0,30.00,SE,140,1.0,11.0,9,0.00,,,0.00,weatherlink.com 1.10,2013-06-25 21:09:00,
2013-06-25 15:24:00,101.6,32.0,30.00,NW,311,14.0,18.0,9,0.00,,,0.00,weatherlink.com 1.10,2013-06-25 21:24:00,
2013-06-25 15:39:00,101.4,32.0,29.99,West,274,5.0,20.0,9,0.00,,,0.00,weatherlink.com 1.10,2013-06-25 21:39:00,
2013-06-25 15:54:00,102.5,33.0,29.98,WSW,246,2.0,16.0,9,0.00,,,0.00,weatherlink.com 1.10,2013-06-25 21:54:00,
2013-06-25 16:10:00,101.4,32.0,29.98,West,271,5.0,19.0,9,0.00,,,0.00,weatherlink.com 1.10,2013-06-25 22:10:00,
2013-06-25 16:25:00,100.9,32.0,29.97,WNW,302,11.0,21.0,9,0.00,,,0.00,weatherlink.com 1.10,2013-06-25 22:25:00,
2013-06-25 16:40:00,100.7,32.0,29.96,West,259,7.0,20.0,9,0.00,,,0.00,weatherlink.com 1.10,2013-06-25 22:40:00,
2013-06-25 16:55:00,101.6,29.0,29.96,NE,36,5.0,12.0,8,0.00,,,0.00,weatherlink.com 1.10,2013-06-25 22:55:00,
2013-06-25 17:11:00,101.9,30.0,29.95,WNW,298,0.0,11.0,8,0.00,,,0.00,weatherlink.com 1.10,2013-06-25 23:11:00,
2013-06-25 17:26:00,101.0,29.0,29.95,WSW,256,1.0,17.0,8,0.00,,,0.00,weatherlink.com 1.10,2013-06-25 23:26:00,
2013-06-25 17:42:00,100.9,29.0,29.95,NW,316,9.0,12.0,8,0.00,,,0.00,weatherlink.com 1.10,2013-06-25 23:42:00,
2013-06-25 17:57:00,100.5,29.0,29.94,West,275,8.0,12.0,8,0.00,,,0.00,weatherlink.com 1.10,2013-06-25 23:57:00,
2013-06-25 18:12:00,100.3,34.0,29.94,SW,223,2.0,11.0,10,0.00,,,0.00,weatherlink.com 1.10,2013-06-26 00:12:00,
2013-06-25 18:27:00,99.5,28.0,29.94,NNW,340,4.0,12.0,8,0.00,,,0.00,weatherlink.com 1.10,2013-06-26 00:27:00,
2013-06-25 18:43:00,99.1,27.0,29.94,NNW,327,6.0,12.0,8,0.00,,,0.00,weatherlink.com 1.10,2013-06-26 00:43:00,
2013-06-25 18:58:00,98.2,27.0,29.94,SW,215,5.0,10.0,8,0.00,,,0.00,weatherlink.com 1.10,2013-06-26 00:58:00,
2013-06-25 19:13:00,97.3,26.0,29.94,WNW,302,6.0,9.0,8,0.00,,,0.00,weatherlink.com 1.10,2013-06-26 01:13:00,
2013-06-25 19:28:00,96.4,26.0,29.95,West,275,2.0,13.0,8,0.00,,,0.00,weatherlink.com 1.10,2013-06-26 01:28:00,
2013-06-25 19:43:00,95.6,28.0,29.95,NW,313,7.0,9.0,9,0.00,,,0.00,weatherlink.com 1.10,2013-06-26 01:43:00,
2013-06-25 19:58:00,94.4,27.0,29.95,NW,321,0.0,8.0,9,0.00,,,0.00,weatherlink.com 1.10,2013-06-26 01:58:00,
2013-06-25 20:13:00,93.4,23.0,29.95,NW,324,2.0,16.0,8,0.00,,,0.00,weatherlink.com 1.10,2013-06-26 02:13:00,
2013-06-25 20:29:00,93.0,26.0,29.95,West,279,0.0,6.0,9,0.00,,,0.00,weatherlink.com 1.10,2013-06-26 02:29:00,
2013-06-25 20:44:00,92.2,22.0,29.95,SW,219,5.0,10.0,8,0.00,,,0.00,weatherlink.com 1.10,2013-06-26 02:44:00,
2013-06-25 20:59:00,91.9,19.0,29.96,West,265,1.0,11.0,7,0.00,,,0.00,weatherlink.com 1.10,2013-06-26 02:59:00,
2013-06-25 21:14:00,91.9,15.0,29.97,West,270,1.0,11.0,6,0.00,,,0.00,weatherlink.com 1.10,2013-06-26 03:14:00,
2013-06-25 21:29:00,91.5,15.0,29.97,NW,306,5.0,13.0,6,0.00,,,0.00,weatherlink.com 1.10,2013-06-26 03:29:00,
2013-06-25 21:45:00,91.2,15.0,29.97,WNW,288,0.0,9.0,6,0.00,,,0.00,weatherlink.com 1.10,2013-06-26 03:45:00,
2013-06-25 22:00:00,90.4,10.0,29.97,NW,314,7.0,10.0,5,0.00,,,0.00,weatherlink.com 1.10,2013-06-26 04:00:00,
2013-06-25 22:15:00,90.8,11.0,29.97,NW,314,9.0,14.0,5,0.00,,,0.00,weatherlink.com 1.10,2013-06-26 04:15:00,
2013-06-25 22:30:00,91.0,6.0,29.97,WSW,248,6.0,13.0,4,0.00,,,0.00,weatherlink.com 1.10,2013-06-26 04:30:00,
2013-06-25 22:45:00,90.8,6.0,29.97,WSW,258,4.0,15.0,4,0.00,,,0.00,weatherlink.com 1.10,2013-06-26 04:45:00,
2013-06-25 23:01:00,89.8,10.0,29.98,WNW,288,6.0,9.0,5,0.00,,,0.00,weatherlink.com 1.10,2013-06-26 05:01:00,
2013-06-25 23:16:00,88.4,4.0,29.99,SE,137,3.0,4.0,4,0.00,,,0.00,weatherlink.com 1.10,2013-06-26 05:16:00,
2013-06-25 23:31:00,87.4,16.0,30.00,SE,133,0.0,3.0,7,0.00,,,0.00,weatherlink.com 1.10,2013-06-26 05:31:00,
2013-06-25 23:46:00,85.3,14.0,30.00,NNW,329,0.0,3.0,7,0.00,,,0.00,weatherlink.com 1.10,2013-06-26 05:46:00,